Location: Il Ritiro
(43.4167°N, 13.1333°E)
Time: 01:45:20
(UTC+00:00)

Meteor 2-3 Rocket - Pass Details

Date: 05 July 2020
Orbit: 843 x 884 km, 81.2° (Epoch: 11 August)

Event Time Altitude Azimuth Distance (km) Brightness Sun altitude
Exits shadow 23:21:02 49° 226° (SW) 1,092 3.9 -23.9°
Maximum altitude 23:22:23 65° 282° (WNW) 941 3.9 -23.9°
Drops below altitude 10° 23:28:04 10° 5° (N) 2,517 7.3 -23.8°
Sets 23:30:33 0° 8° (N) 3,464 8.3 -23.8°
